Location: Caltech
(34.1382°N, 118.1253°W)
Time: 21:59:18
(UTC-07:00)

Cosmos 2360 Rocket - Visible Passes

Search period start: 23 August 2017 00:00
Search period end: 02 September 2017 00:00
Orbit: 835 x 844 km, 71.0° (Epoch: 23 August)

Date Brightness Start Highest point End Pass type
(mag) Time Alt. Az. Time Alt. Az. Time Alt. Az.
23 Aug 2.8 19:58:08 10° SSE 20:03:06 33° ESE 20:08:04 10° NE visible
23 Aug 4.1 21:42:13 10° WSW 21:47:01 29° WNW 21:51:52 10° N visible
24 Aug 4.0 21:26:25 10° WSW 21:31:20 30° WNW 21:36:15 10° N visible
25 Aug 4.0 21:10:37 10° SW 21:15:37 33° WNW 21:20:39 10° N visible
26 Aug 3.9 20:54:50 10° SW 20:59:55 35° WNW 21:05:03 10° N visible
27 Aug 3.1 05:51:48 10° NNW 05:57:20 56° ENE 06:02:49 10° SE visible
27 Aug 3.8 20:39:03 10° SW 20:44:13 37° WNW 20:49:26 10° N visible
28 Aug 3.2 05:36:09 10° N 05:41:39 52° ENE 05:47:06 10° SE visible
28 Aug 3.7 20:23:17 10° SW 20:28:31 40° WNW 20:33:48 10° N visible
29 Aug 3.3 05:20:31 10° N 05:25:57 48° ENE 05:31:22 10° SE visible
29 Aug 3.6 20:07:31 10° SW 20:12:50 43° WNW 20:18:10 10° N visible
30 Aug 3.4 05:04:53 10° N 05:10:16 45° ENE 05:15:37 10° SE visible
30 Aug 3.5 19:51:46 10° SW 19:57:08 46° WNW 20:02:33 10° N visible
31 Aug 3.5 04:49:15 10° N 04:54:34 42° ENE 04:59:52 10° SE visible
31 Aug 3.4 19:36:01 10° SW 19:41:27 49° WNW 19:46:54 10° N visible
01 Sep 3.6 04:33:37 10° N 04:38:52 39° ENE 04:44:06 10° SE visible
